Weather Roundup
Issued by NWS Chicago, IL

Home | Current Version | Previous Version | Graphics & Text | Print | Product List | Glossary On
Versions: 1 2 3 4 5 6 7 8 9 10 11 12 13 14 15 16 17 18 19 20 21 22 23 24 25 26 27 28 29 30 31 32 33 34 35 36 37 38 39 40 41 42 43 44 45 46 47 48 49 50
000
NZUS59 KLOT 241603
HRRLOT

CHICAGO AREA WEATHER ROUNDUP
NATIONAL WEATHER SERVICE CHICAGO/ROMEOVILLE IL
1100 AM CDT TUE MAY 24 2016

NOTE: "FAIR" INDICATES FEW OR NO CLOUDS BELOW 12,000 FEET WITH NO
SIGNIFICANT WEATHER AND/OR OBSTRUCTIONS TO VISIBILITY.

* THESE STATIONS ARE NOT UNDER NWS QUALITY CONTROL. THEY ALSO MAY NOT
  REPORT WEATHER SUCH AS PRECIPITATION OR FOG.

ILZ005-006-012>014-019>023-241700-
NORTHEAST ILLINOIS

CITY           SKY/WX    TMP DP  RH WIND       PRES   REMARKS
OHARE          PTSUNNY   78  55  44 S15       29.99S
MIDWAY         PTSUNNY   81  52  36 SW15      30.00S HX  80
AURORA         SUNNY     80  58  46 SW15      29.99S HX  80
LANSING*       SUNNY     79  49  35 SW14G21   30.02S
WAUKEGAN       SUNNY     79  56  45 S16       29.97F HX  80
DUPAGE AIRPORT SUNNY     79  56  45 SW10      29.99S HX  80
WHEELING       SUNNY     79  55  43 SW8       29.99F
$$

WIZ051-052-058>065-066-070>072-241700-
SOUTHEAST WISCONSIN

CITY           SKY/WX    TMP DP  RH WIND       PRES   REMARKS
MILWAUKEE      MOSUNNY   79  55  43 S14       29.96S
KENOSHA*       SUNNY     80  56  43 SW13      29.97F HX  80
RACINE*        MOSUNNY   80  52  37 SW12      29.98S HX  80
WAUKESHA       MOSUNNY   75  54  46 S9        29.97S
$$

INZ001>003-010>013-019-020-241700-
NORTHWEST INDIANA

CITY           SKY/WX    TMP DP  RH WIND       PRES   REMARKS
GARY*          MOSUNNY   81  59  47 SW14      30.02S HX  81
MICHIGAN CITY* NOT AVBL
RENSSELAER*    NOT AVBL
VALPARAISO     SUNNY     80  51  36 SW16      30.04R HX  80
$$

LMZ740>746-241700-
SOUTHERN LAKE MICHIGAN

STATION/POSITION TIME  SKY/WX   TEMP WIND        PRES    VSBY
                                AIR  DIR/SP/G
                 (UTC)          (F)  (DEG/KT/KT) (MB)    (MI)
HARRISON CRIB    1500            70  190/  8/  9   N/A
BURNHAM HARBOR   1600            79  180/  9/ 16   N/A
CALUMET HARBOR   1500            75  200/  8/ 13 1015.6F
BURNS HARBOR     1500            74  220/  9/ 12 1016.9S
MICHIGAN CITY    1500            73  230/  5/  5   N/A
$$

ABBREVIATIONS USED IN REMARKS
   TC - TEMPERATURE IN CELSIUS
  WCI - WIND CHILL INDEX
   HX - HEAT INDEX
  VSB - VISIBILITY
$$




USA.gov is the U.S. government's official web portal to all federal, state and local government web resources and services.